Weather History for Erzurum, Turkey

Change the Weather History Date:

Monday, August 5, 2013

  Actual Average Record
Temperature  
Mean Temperature 56 °F -  
Max Temperature 75 °F 79 °F 91 °F (2001)
Min Temperature 38 °F 51 °F 38 °F (2013)
Degree Days  
Heating Degree Days 8    
Growing Degree Days 6 (Base 50)    
Moisture  
Dew Point 40 °F    
Average Humidity 51    
Maximum Humidity 87    
Minimum Humidity 18    
Precipitation  
Precipitation 0.00 in 0.02 in - ()
Sea Level Pressure  
Sea Level Pressure 30.06 in    
Wind  
Wind Speed 5 mph ()    
Max Wind Speed 15 mph    
Max Gust Speed -    
Visibility 7.2 miles    
Events      
Averages and records for this station are not official NWS values.
T = Trace of Precipitation, MM = Missing Value Source: Averaged Metar Reports

Daily Weather History Graph

Daily Weather History Graph

Search for Another Location

Airport:

Trip Planner

Search our weather history database for the weather conditions in past years. The results will help you decide how hot, cold, wet, or windy it might be!

Date:

Astronomy

Aug. 05, 2013 Rise Set
Actual Time 5:17 AM EEST 7:24 PM EEST
Civil Twilight 4:47 AM EEST 7:54 PM EEST
Nautical Twilight 4:10 AM EEST 8:30 PM EEST
Astronomical Twilight 3:30 AM EEST 9:10 PM EEST
Moon 3:52 AM EEST (8/5) 6:11 PM EEST (8/5)
Length of Visible Light 15h 06m
Length of Day
14h 07m
Waning Crescent, 2% of the Moon is Illuminated
Aug 5
Waning Crescent
Aug 7
New
Aug 14
First Quarter
Aug 21
Full
Aug 28
Last Quarter

Hourly Weather History & Observations

Time (EEST) Temp. Windchill Dew Point Humidity Pressure Visibility Wind Dir Wind Speed Gust Speed Precip Events Conditions
12:20 AM 51.8 °F - 39.2 °F 62% 30.06 in - ENE 6.9 mph - N/A   Clear
12:50 AM 53.6 °F - 41.0 °F 62% 30.06 in - Variable 1.2 mph - N/A   Clear
1:20 AM 51.8 °F - 41.0 °F 67% 30.06 in - Variable 1.2 mph - N/A   Clear
1:50 AM 48.2 °F - 39.2 °F 71% 30.06 in - Variable 2.3 mph - N/A   Clear
2:20 AM 48.2 °F - 39.2 °F 71% 30.06 in - NW 4.6 mph - N/A   Clear
2:50 AM 44.6 °F - 37.4 °F 76% 30.06 in - Variable 2.3 mph - N/A   Clear
3:00 AM 44 °F - 38 °F 71%  in 12 mi South 2.3 mph - -  
3:20 AM 42.8 °F 41.1 °F 39.2 °F 87% 30.06 in - SE 3.5 mph - N/A   Clear
3:50 AM 42.8 °F 40.1 °F 37.4 °F 81% 30.06 in - SSE 4.6 mph - N/A   Clear
4:20 AM 44.6 °F - 39.2 °F 81% 30.06 in - Variable 2.3 mph - N/A   Clear
4:50 AM 41.0 °F 38.0 °F 35.6 °F 81% 30.06 in - SE 4.6 mph - N/A   Clear
5:20 AM 41.0 °F - 37.4 °F 87% 30.06 in - Variable 2.3 mph - N/A   Clear
5:50 AM 41.0 °F - 35.6 °F 81% 30.09 in - Variable 1.2 mph - N/A   Clear
6:20 AM 44.6 °F - 39.2 °F 81% 30.09 in - Variable 1.2 mph - N/A   Clear
6:50 AM 48.2 °F - 39.2 °F 71% 30.09 in - Variable 1.2 mph - N/A   Clear
7:20 AM 50.0 °F - 39.2 °F 66% 30.09 in - Variable 2.3 mph - N/A   Clear
7:50 AM 51.8 °F - 41.0 °F 67% 30.09 in - Variable 3.5 mph - N/A   Clear
8:20 AM 55.4 °F - 41.0 °F 58% 30.09 in - NNW 4.6 mph - N/A   Clear
8:50 AM 59.0 °F - 39.2 °F 48% 30.09 in 6.2 mi Variable 3.5 mph - N/A   Partly Cloudy
9:00 AM 59 °F - 40 °F 37%  in 12 mi NNE 3.5 mph - -   Scattered Clouds
9:20 AM 59.0 °F - 39.2 °F 48% 30.09 in 6.2 mi Variable 3.5 mph - N/A   Partly Cloudy
9:50 AM 62.6 °F - 39.2 °F 42% 30.09 in 6.2 mi North 4.6 mph - N/A   Partly Cloudy
10:20 AM 62.6 °F - 39.2 °F 42% 30.09 in 6.2 mi Variable 3.5 mph - N/A   Partly Cloudy
10:50 AM 62.6 °F - 39.2 °F 42% 30.06 in 6.2 mi Variable 3.5 mph - N/A   Partly Cloudy
11:20 AM 66.2 °F - 39.2 °F 37% 30.06 in 6.2 mi Variable 4.6 mph - N/A   Partly Cloudy
11:50 AM 68.0 °F - 39.2 °F 35% 30.06 in 6.2 mi NNW 5.8 mph - N/A   Partly Cloudy
12:20 PM 68.0 °F - 39.2 °F 35% 30.04 in 6.2 mi East 6.9 mph - N/A   Partly Cloudy
12:50 PM 69.8 °F - 39.2 °F 33% 30.04 in 6.2 mi Variable 4.6 mph - N/A   Partly Cloudy
1:20 PM 71.6 °F - 41.0 °F 33% 30.04 in - Variable 4.6 mph - N/A   Clear
1:50 PM 71.6 °F - 39.2 °F 31% 30.01 in 6.2 mi Variable 6.9 mph - N/A   Partly Cloudy
2:20 PM 73.4 °F - 41.0 °F 31% 30.01 in 6.2 mi Variable 5.8 mph - N/A   Partly Cloudy
2:50 PM 73.4 °F - 37.4 °F 27% 30.01 in 6.2 mi Variable 4.6 mph - N/A   Partly Cloudy
3:00 PM 73 °F - 38 °F 18%  in 12 mi SE 4.6 mph - -   Scattered Clouds
3:20 PM 73.4 °F - 39.2 °F 29% 30.01 in 6.2 mi Variable 5.8 mph - N/A   Partly Cloudy
3:50 PM 75.2 °F - 39.2 °F 27% 30.01 in 6.2 mi ENE 8.1 mph - N/A   Partly Cloudy
4:20 PM 73.4 °F - 37.4 °F 27% 30.01 in 6.2 mi ENE 11.5 mph - N/A   Partly Cloudy
4:50 PM 73.4 °F - 39.2 °F 29% 30.01 in 6.2 mi NE 11.5 mph - N/A   Partly Cloudy
5:20 PM 73.4 °F - 39.2 °F 29% 30.01 in 6.2 mi ENE 11.5 mph - N/A   Partly Cloudy
5:50 PM 71.6 °F - 39.2 °F 31% 30.01 in 6.2 mi NE 13.8 mph - N/A   Partly Cloudy
6:20 PM 69.8 °F - 41.0 °F 35% 30.01 in 6.2 mi NE 13.8 mph - N/A   Partly Cloudy
6:50 PM 68.0 °F - 41.0 °F 37% 30.01 in 6.2 mi NE 13.8 mph - N/A   Partly Cloudy
7:20 PM 66.2 °F - 41.0 °F 40% 30.04 in - NNE 13.8 mph - N/A   Clear
7:50 PM 62.6 °F - 41.0 °F 45% 30.04 in - ENE 8.1 mph - N/A   Clear
8:20 PM 60.8 °F - 42.8 °F 52% 30.06 in - East 11.5 mph - N/A   Clear
8:50 PM 60.8 °F - 42.8 °F 52% 30.06 in - East 13.8 mph - N/A   Clear
9:00 PM 61 °F - 42 °F 38%  in 12 mi East 15.0 mph - -  
9:20 PM 59.0 °F - 42.8 °F 55% 30.09 in - ENE 11.5 mph - N/A   Clear
9:50 PM 59.0 °F - 42.8 °F 55% 30.09 in - East 13.8 mph - N/A   Clear
10:20 PM 59.0 °F - 41.0 °F 51% 30.09 in - East 13.8 mph - N/A   Clear
10:50 PM 57.2 °F - 42.8 °F 59% 30.09 in - ENE 12.7 mph - N/A   Clear
11:20 PM 53.6 °F - 41.0 °F 62% 30.09 in - East 9.2 mph - N/A   Clear
11:50 PM 53.6 °F - 41.0 °F 62% 30.09 in - ENE 10.4 mph - N/A   Clear